Regional Weather Roundup
Issued by NWS

Home | Current Version | Previous Version | Graphics & Text | Print | Product List | Glossary On
Versions: 1 2 3 4 5 6 7 8 9 10 11 12 13 14 15 16 17 18 19 20 21 22 23 24 25 26 27 28 29 30 31 32 33 34 35 36 37 38 39 40 41 42 43 44 45 46 47 48 49 50
083
ASUS45 KBOU 280607
RWRCO

WEATHER ROUNDUP FOR COLORADO
NATIONAL WEATHER SERVICE DENVER/BOULDER CO
1100 PM MST MON FEB 27 2017

NOTE: "FAIR" INDICATES FEW OR NO CLOUDS BELOW 12000 FEET WITH NO
SIGNIFICANT WEATHER AND/OR OBSTRUCTIONS TO VISIBILITY.

COZ001>005-013-030-031-280700-
...NORTHWEST COLORADO...

CITY           SKY/WX    TMP DP  RH WIND       PRES   REMARKS
CRAIG          LGT SNOW  22  18  85 SE3       29.79R FOG
HAYDEN         CLOUDY    19  14  79 W8        29.78R WCI   9
MEEKER         LGT SNOW  24  19  81 NE7       29.76R WCI  16
MOUNT WERNER   NOT AVBL
STEAMBOAT SPGS CLOUDY    20  18  91 W3        29.75R
WALDEN         NOT AVBL
$$

COZ006>008-011-280700-
...WEST CENTRAL VALLEYS...

CITY           SKY/WX    TMP DP  RH WIND       PRES   REMARKS
GRAND JUNCTION CLOUDY    38  34  85 SE8       29.72S
MONTROSE       LGT RAIN  33  33 100 CALM      29.77S
EAGLE          LGT SNOW  30  28  93 W6        29.71S FOG     WCI  24
RIFLE          CLOUDY    34  24  67 NW16G22   29.72R WCI  24
DELTA          CLOUDY    38  35  87 N3        29.75S
NUCLA          LGT RAIN  36  32  87 SW24G30   29.79F
$$

COZ017>023-064>068-280700-
...SOUTHWEST COLORADO...

CITY           SKY/WX    TMP DP  RH WIND       PRES   REMARKS
DURANGO        LGT SNOW  32  30  92 CALM      29.81F VSB 1
CORTEZ         RAIN      34  34 100 SW10      29.80F FOG     WCI  26
PAGOSA SPRINGS LGT SNOW  30  30 100 CALM      29.82F VSB 3/4
TELLURIDE      LGT SNOW  27  26  97 CALM      29.77F
WOLF CREEK PAS CLOUDY    18  18 100 SW26G39   29.78F WCI  -1
$$

COZ009-010-012-014-032>034-037-058>063-280700-
...CENTRAL COLORADO...

CITY           SKY/WX    TMP DP  RH WIND       PRES   REMARKS
ASPEN          LGT SNOW  27  26  96 VRB5      29.68S FOG     WCI  22
BUENA VISTA    CLOUDY    32  22  69 S13       29.68R WCI  22
COPPER MTN     LGT SNOW  19  12  73 MISG      29.66F
BERTHOUD PASS  LGT SNOW  10   0  61 MISG      29.64R VSB 3/4
COTTONWOOD PAS LGT SNOW  28  21  74 W16G36    29.67S WCI  17
GUNNISON       LGT SNOW  27  26  96 E5        29.74F FOG     WCI  22
KREMMLING      LGT SNOW  28  19  69 N6        29.71S WCI  22
LEADVILLE      SNOW      19  17  92 CALM      29.65F VSB 1/2
MONARCH PASS     N/A     18  14  86 MISG      29.74R
SALIDA         CLOUDY    32  25  74 S9        29.79R WCI  25
SUNLIGHT       NOT AVBL
WILKERSON PASS CLOUDY    18  14  86 S10G31    29.66F WCI   6
$$

COZ069>075-280700-
...SAN LUIS VALLEY/SANGRE DE CRISTO MOUNTAINS...

CITY           SKY/WX    TMP DP  RH WIND       PRES   REMARKS
ALAMOSA        FAIR      26  25  96 SE5       29.76F WCI  20
LA VETA PASS   CLOUDY    27  21  80 S31G55    29.76F WCI  10
SAGUACHE       FAIR      23  19  86 S5        29.76S WCI  17
$$

COZ035-036-038>040-280700-
...NORTHERN COLORADO FRONT RANGE...

CITY           SKY/WX    TMP DP  RH WIND       PRES   REMARKS
DENVER INTL AP MOCLDY    27  20  75 NE9       29.66R WCI  18
DMNS CITY PARK   N/A     31  20  63 NE8G17    29.67R WCI  24
AURORA         MOCLDY    27  16  62 E10       29.67R WCI  17
FRONT RANGE AP FAIR      28  23  80 NE9       29.68S WCI  20
ERIE MUNI ARPT CLOUDY    32  23  69 E5        29.69R WCI  27
BOULDER MUN AP CLOUDY    32  23  69 SE3       29.68R
CENTENNIAL     MOCLDY    39  16  39 W8        29.64R
BROOMFIELD     FAIR      32  23  69 NE6       29.69R WCI  26
FORT COLLINS   FAIR      35  16  45 N23       29.65R WCI  23
LONGMONT       NOT AVBL
$$

COZ041-046-047-076>085-087-088-280700-
...PIKES PEAK/PALMER DIVIDE AND SOUTHERN FOOTHILLS...

CITY           SKY/WX    TMP DP  RH WIND       PRES   REMARKS
COLO. SPRINGS  FAIR      39  13  34 SW15      29.66S
A. F. ACADEMY  FAIR      40  12  31 SW7G18    29.63F
SCHRIEVER AFB  FAIR      35  13  40 SW10G17   29.66F WCI  27
ELLICOTT       FAIR       1   1 100 W10       29.65F WCI -15
FALCON         FAIR      31  11  43 S5        29.67S WCI  26
FORT CARSON    FAIR      40  15  35 W8        29.64F
LIMON          FAIR     N/A N/A N/A N18       29.68R
MONUMENT HILL  FAIR      30  16  55 SW7       29.65F WCI  23
TRINIDAD       FAIR      46  21  37 SW16G24   29.69F
$$

COZ042>045-048>051-090-091-280700-
...NORTHEAST COLORADO...

CITY           SKY/WX    TMP DP  RH WIND       PRES   REMARKS
GREELEY ARPT   FAIR      33  19  56 N6        29.69R WCI  28
AKRON          FAIR      28  23  81 NW17      29.66R WCI  16
BURLINGTON     FAIR      35  19  52 NW12      29.69R WCI  27
WRAY           NOT AVBL
STERLING       FAIR      28  27  93 NW7       29.68R WCI  21
HOLYOKE        FAIR      34  25  69 NW14G22   29.64R WCI  24
FORT MORGAN    FAIR      26  22  85 CALM      29.71R
$$

COZ086-089-092>099-280700-
...SOUTHEAST COLORADO...

CITY           SKY/WX    TMP DP  RH WIND       PRES   REMARKS
PUEBLO         FAIR      33  15  47 NE3       29.64F
LA JUNTA       FAIR      42  17  36 SW10      29.68S
LAMAR          FAIR      34  10  37 S10       29.66F WCI  26
SPRINGFIELD      N/A     34  11  38 SW10      29.73F WCI  26
$$




USA.gov is the U.S. government's official web portal to all federal, state and local government web resources and services.